Location: Unspecified
(39.4830°S, 0.0000°E)
Time: 09:37:10
(UTC+00:00)

ISS - Visible Passes

Search period start: 26 May 2019 00:00
Search period end: 05 June 2019 00:00
Orbit: 408 x 418 km, 51.6° (Epoch: 26 May)

Date Brightness Start Highest point End Pass type
(mag) Time Alt. Az. Time Alt. Az. Time Alt. Az.
26 May -3.8 05:46:14 18° NW 05:48:36 90° WSW 05:52:01 10° SE visible
27 May -2.5 04:59:46 42° ENE 04:59:46 42° ENE 05:02:28 10° ESE visible
27 May -2.4 06:33:09 10° W 06:36:01 24° SSW 06:38:52 10° SSE visible
28 May -3.1 05:45:52 33° SW 05:46:23 36° SSW 05:49:34 10° SE visible
29 May -1.6 04:58:52 21° SE 04:58:52 21° SE 05:00:11 10° SE visible
29 May -1.7 06:31:58 10° SW 06:34:03 15° SSW 06:36:08 10° SSE visible
30 May -2.0 05:44:33 19° SSW 05:44:33 19° SSW 05:46:53 10° SSE visible
31 May -0.9 04:57:16 12° SSE 04:57:16 12° SSE 04:57:34 10° SSE visible
31 May -1.4 06:30:57 10° SSW 06:32:11 11° S 06:33:25 10° SSE visible
01 Jun -1.4 05:42:43 13° S 05:42:43 13° S 05:44:05 10° SSE visible
02 Jun -1.3 06:29:25 10° SSW 06:30:19 11° S 06:31:15 10° SSE visible
03 Jun -1.2 05:40:34 11° S 05:40:34 11° S 05:41:25 10° SSE visible
04 Jun -1.3 06:26:47 10° SSW 06:28:25 13° SSE 06:30:02 10° SE visible
